Location: Texas Valley
(42.4862°N, 75.9730°W)
Time: 09:18:59
(UTC+00:00)

ISS - Visible Passes

Search period start: 24 April 2024 00:00
Search period end: 04 May 2024 00:00
Orbit: 411 x 418 km, 51.6° (Epoch: 24 April)

Date Brightness Start Highest point End Pass type
(mag) Time Alt. Az. Time Alt. Az. Time Alt. Az.
24 Apr -2.9 08:08:25 39° SE 08:08:25 39° SE 08:11:32 10° ENE visible
25 Apr -1.1 07:21:07 15° E 07:21:07 15° E 07:22:04 10° E visible
25 Apr -3.2 08:53:58 21° W 08:55:53 48° NNW 08:59:07 10° NE visible
26 Apr -3.9 08:06:32 77° WNW 08:06:38 78° NNW 08:09:57 10° NE visible
27 Apr -1.7 07:19:01 26° ENE 07:19:01 26° ENE 07:20:39 10° ENE visible
27 Apr -2.1 08:51:50 13° WNW 08:54:15 26° NNW 08:57:08 10° NE visible
28 Apr -2.7 08:04:12 33° NW 08:04:45 36° NNW 08:07:52 10° NE visible
29 Apr -2.0 07:16:28 32° NNE 07:16:28 32° NNE 07:18:32 10° NE visible
29 Apr -1.4 08:50:00 10° WNW 08:52:27 19° N 08:54:55 10° NE visible
30 Apr -0.6 06:28:38 13° NE 06:28:38 13° NE 06:29:04 10° NE visible
30 Apr -1.7 08:01:27 18° NW 08:02:45 22° NNW 08:05:27 10° NE visible
01 May -1.8 07:13:32 27° N 07:13:32 27° N 07:15:58 10° NE visible
01 May -1.1 08:48:13 10° NW 08:50:27 17° N 08:52:43 10° NE visible
02 May -0.8 06:25:32 16° NE 06:25:32 16° NE 06:26:26 10° NE visible
02 May -1.2 07:58:20 10° NW 08:00:34 17° N 08:02:55 10° NE visible
03 May -1.4 07:10:15 19° NNW 07:10:39 20° NNW 07:13:11 10° NE visible
03 May -1.1 08:45:47 10° NW 08:48:11 18° N 08:50:35 10° NE visible
